Simultaneous Nadir Overpasses (SNOs) Predictions

Prediction of SNOs between AQUA and LANDSAT-8 Satellite Orbit:

Table of predicted SNOs for the next 14.0 days since TLE Epoch: 7/12/2025
Index Date (AQUA) Time (AQUA) Lat,Lon (AQUA) SZA (AQUA ) Date (LANDSAT-8) Time (LANDSAT-8) Lat,Lon (LANDSAT-8) SZA (LANDSAT-8 ) Distance(km) Time Diff (sec)
1 07/13/2025 00:34:34 74.86,-179.87 53.10 07/13/2025 00:33:31 74.84, 176.70 52.98 99.48 63
2 07/13/2025 01:24:00 -75.29, -13.38 126.51 07/13/2025 01:22:50 -75.27, -14.52 126.56 32.18 70
3 07/13/2025 02:13:23 75.51, 153.66 53.70 07/13/2025 02:12:11 75.50, 153.76 53.69 3.03 72
4 07/13/2025 03:02:40 -75.49, -38.61 126.31 07/13/2025 03:01:39 -75.48, -38.67 126.33 2.35 61
5 07/13/2025 03:51:59 75.52, 129.00 53.72 07/13/2025 03:51:04 75.51, 129.06 53.71 1.92 55
6 07/13/2025 04:41:16 -75.50, -63.27 126.30 07/13/2025 04:40:32 -75.49, -63.37 126.32 3.15 44
7 07/13/2025 05:30:35 75.52, 104.34 53.73 07/13/2025 05:29:57 75.52, 104.36 53.72 0.93 38
8 07/13/2025 06:19:52 -75.50, -87.93 126.28 07/13/2025 06:19:24 -75.54, -87.93 126.25 4.10 28
9 07/13/2025 07:09:11 75.53, 79.68 53.75 07/13/2025 07:08:50 75.52, 79.65 53.74 0.84 21
10 07/13/2025 07:58:29 -75.56,-112.74 126.22 07/13/2025 07:58:17 -75.55,-112.63 126.23 3.16 12
11 07/13/2025 08:47:47 75.53, 55.01 53.76 07/13/2025 08:47:43 75.53, 54.95 53.76 1.78 4
12 07/13/2025 09:37:05 -75.56,-137.40 126.21 07/13/2025 09:37:10 -75.55,-137.34 126.21 2.07 5
13 07/13/2025 10:26:23 75.54, 30.35 53.78 07/13/2025 10:26:36 75.53, 30.25 53.77 2.88 13
14 07/13/2025 11:15:41 -75.57,-162.06 126.19 07/13/2025 11:16:03 -75.56,-162.04 126.20 1.11 22
15 07/13/2025 12:04:59 75.54, 5.69 53.79 07/13/2025 12:05:29 75.54, 5.54 53.79 4.00 30
16 07/13/2025 12:54:17 -75.57, 173.27 126.18 07/13/2025 12:54:56 -75.57, 173.26 126.18 0.90 39
17 07/13/2025 13:43:36 75.60, -19.12 53.85 07/13/2025 13:44:21 75.60, -19.02 53.86 2.87 45
18 07/13/2025 14:32:53 -75.58, 148.61 126.16 07/13/2025 14:33:49 -75.57, 148.55 126.16 1.73 56
19 07/13/2025 15:22:12 75.60, -43.78 53.87 07/13/2025 15:23:14 75.60, -43.72 53.88 1.75 62
20 07/13/2025 16:11:30 -75.63, 123.80 126.10 07/13/2025 16:12:41 -75.63, 123.99 126.09 5.25 71
21 07/13/2025 17:00:54 75.90, -69.34 54.16 07/13/2025 17:02:02 75.86, -67.69 54.16 45.00 68



Historial Predications of SNOs between AQUA and LANDSAT-8
